Location: Unspecified
(49.2170°N, 0.0000°E)
Time: 00:43:33
(UTC+00:00)

A-11 Canister half - Pass Details

Date: 24 June 2021
Orbit: 1513 x 1687 km, 47.2° (Epoch: 30 July)

Event Time Altitude Azimuth Distance (km) Brightness Sun altitude
Exits shadow 01:35:21 12° 173° (S) 3,761 10.5 -14.5°
Maximum altitude 01:41:41 23° 130° (SE) 3,031 10.4 -14.1°
Drops below altitude 10° 01:48:44 10° 85° (E) 3,879 11.5 -13.6°
Sets 01:52:42 0° 71° (ENE) 4,841 12.3 -13.3°
